JUPITER 3 (ECHOSTAR 24)

Last updated on Sun Dec 14 2025 00:02:54 GMT+0000 (Coordinated Universal Time)

1 57479U 23108A 25347.03675975 .00000000 00000+0 00000+0 0 9997 2 57479 0.0213 348.4466 0001101 270.4089 101.1322 1.00270519 8775
UTC large
Height (km)
Speed (km/s)
/
Latitude / Longitude
Inclination (degrees)
Orbital Period (minutes)
Azimuth
Elevation
Range (km)
Doppler Factor

Next 0 passes for location: London (51.5072 / 0.1276)

Sorry there are no passes over London.